Flag for Jordan Weather past 2 weeks in Amman, Jordan

Now
57 °F

Haze.


Feels Like: 57 °F
Forecast: 54 / 73 °F
Wind: No wind

Location: Amman Airport

Current Time: Oct 23, 2014 at 7:53:18 AM

Latest Report: Oct 23, 2014 at 7:00 AM


Visibility: 3 mi

Pressure: 30.04 "Hg

Humidity: 44%

Dew point: 36 °F

Location of AmmanLocation

Historic Weather in Amman — Graph

°F

Amman temperature yesterday

Maximum temperature yesterday: 79 °F (at 3:00 PM)
Minimum temperature yesterday: 52 °F (at 6:00 AM)
Average temperature yesterday: 67 °F

Past Weeks' High & Low Weather Summary

 TemperatureHumidityPressure
High91 °F (Oct 8, 3:00 PM)94% (Oct 19, 9:00 PM)30.21 "Hg (Oct 19, 9:00 PM)
Low52 °F (Oct 22, 6:00 AM)13% (Oct 8, 12:00 PM)29.83 "Hg (Oct 19, 2:00 PM)
Average68 °F54%30.03 "Hg
* Reported Oct 8 6:00 AM — Oct 23 6:00 AM, Amman, Weather by CustomWeather, © 2014

Note: Actual official high and low records may vary slightly from our data, if they occured in-between our weather recording intervals... More about our weather records

Advertising

Amman weather history for previous 24 hours

 ConditionsComfort  
Time TempWeatherWind HumidityBarometerVisibility
6:00 AM
Oct 23
59 °FHaze.No wind45%30.04 "Hg3 mi
5:00 AM61 °FHaze.No wind39%30.04 "Hg3 mi
4:00 AM61 °FHaze.No wind36%30.04 "Hg3 mi
3:00 AM64 °FHaze.No wind32%30.04 "Hg3 mi
2:00 AM66 °FHaze.No wind30%30.04 "Hg3 mi
1:00 AM66 °FHaze.No wind30%30.04 "Hg3 mi
12:00 AM68 °FHaze.7 mph30%30.07 "Hg3 mi
11:00 PM
Oct 22
70 °FHaze.8 mph29%30.07 "Hg3 mi
10:00 PM70 °FHaze.12 mph29%30.04 "Hg3 mi
9:00 PM70 °FHaze.7 mph29%30.04 "Hg3 mi
8:00 PM70 °FHaze.12 mph29%30.04 "Hg3 mi
7:00 PM72 °FHaze.10 mph29%30.04 "Hg3 mi
6:00 PM75 °FHaze.No wind29%30.04 "Hg3 mi
5:00 PM77 °FClear.7 mph24%30.04 "Hg4 mi
4:00 PM79 °FHaze.8 mph23%30.04 "Hg3 mi
3:00 PM79 °FHaze.8 mph21%30.04 "Hg3 mi
2:00 PM77 °FHaze.13 mph24%30.07 "Hg3 mi
1:00 PM75 °FHaze.10 mph24%30.09 "Hg3 mi
12:00 PM72 °FHaze.9 mph29%30.12 "Hg3 mi
11:00 AM70 °FHaze.6 mph33%30.15 "Hg3 mi
10:00 AM68 °FHaze.6 mph33%30.15 "Hg3 mi
9:00 AM61 °FHaze.No wind52%30.12 "Hg3 mi
8:00 AM55 °FHaze.No wind59%30.12 "Hg2 mi
7:00 AM52 °FHaze.No wind72%30.07 "Hg2 mi
Weather by CustomWeather, © 2014

See weather overviewHow to use our weather pages